2023/04/04 23:34:19+0000,-29.83,-42.54,-36.99,-44.57,-49.69,-55.00
2023/04/04 23:35:11+0000,-29.67,-43.04,-36.75,-43.87,-50.33,-54.06
2023/04/04 23:36:03+0000,-30.56,-43.81,-36.93,-41.03,-49.34,-54.86
2023/04/04 23:36:55+0000,-30.07,-42.25,-37.19,-41.75,-50.67,-53.88
2023/04/04 23:37:47+0000,-30.17,-42.65,-36.92,-40.31,-49.17,-54.78
2023/04/04 23:38:39+0000,-30.12,-42.07,-37.24,-40.99,-49.42,-54.27
2023/04/04 23:39:31+0000,-30.31,-43.33,-37.13,-41.68,-49.34,-54.83
2023/04/04 23:40:23+0000,-30.12,-42.06,-37.02,-41.37,-48.81,-53.14
2023/04/04 23:41:22+0000,-30.26,-42.86,-37.09,-40.88,-49.07,-53.59
2023/04/04 23:42:14+0000,-29.89,-42.34,-37.07,-40.81,-48.31,-52.21
2023/04/04 23:43:06+0000,-29.77,-43.55,-37.07,-40.68,-48.80,-53.96
2023/04/04 23:43:58+0000,-29.74,-43.09,-37.23,-41.76,-48.89,-51.83
2023/04/04 23:44:50+0000,-29.63,-44.09,-37.28,-39.86,-47.47,-52.26
2023/04/04 23:45:42+0000,-30.03,-43.26,-36.88,-40.40,-48.72,-53.18
2023/04/04 23:46:34+0000,-29.84,-43.30,-37.02,-41.19,-49.83,-53.60
2023/04/04 23:47:26+0000,-30.08,-43.82,-37.33,-40.95,-49.55,-50.99
2023/04/04 23:48:18+0000,-29.78,-43.11,-36.85,-41.13,-49.00,-54.80
2023/04/04 23:49:11+0000,-29.49,-43.41,-37.34,-41.50,-49.98,-52.59
2023/04/04 23:50:03+0000,-29.77,-43.32,-37.40,-40.31,-48.82,-54.70
2023/04/04 23:51:02+0000,-29.83,-42.94,-37.31,-40.97,-48.99,-55.01
2023/04/04 23:51:54+0000,-30.42,-44.10,-37.14,-40.77,-49.07,-54.05
2023/04/04 23:52:46+0000,-30.03,-43.41,-37.47,-41.36,-49.17,-51.55
2023/04/04 23:53:38+0000,-30.24,-42.29,-37.26,-41.44,-48.72,-51.30
2023/04/04 23:54:30+0000,-29.86,-43.18,-37.27,-40.51,-48.98,-54.28
2023/04/04 23:55:22+0000,-29.30,-43.94,-37.30,-41.20,-49.08,-53.43
2023/04/04 23:56:14+0000,-30.33,-42.80,-37.08,-41.96,-48.29,-51.88
2023/04/04 23:57:06+0000,-30.08,-42.53,-36.56,-44.83,-49.29,-52.28
2023/04/04 23:57:58+0000,-29.67,-42.48,-37.51,-43.98,-48.45,-53.62
2023/04/04 23:58:50+0000,-29.68,-42.64,-37.65,-44.90,-48.37,-52.74
2023/04/04 23:59:42+0000,-30.13,-42.63,-37.25,-45.67,-50.36,-53.21
2023/04/05 00:00:34+0000,-29.85,-43.03,-36.87,-45.59,-47.94,-53.35
2023/04/05 00:01:37+0000,-30.01,-42.92,-36.93,-46.19,-48.46,-51.70
2023/04/05 00:02:29+0000,-30.11,-42.45,-36.37,-44.99,-48.68,-54.98
2023/04/05 00:03:21+0000,-29.72,-42.25,-37.52,-43.48,-49.45,-53.97
2023/04/05 00:04:13+0000,-29.31,-42.70,-37.78,-45.56,-49.17,-53.12
2023/04/05 00:05:05+0000,-29.85,-41.99,-37.46,-45.52,-48.12,-52.40
2023/04/05 00:05:57+0000,-29.55,-41.97,-38.07,-45.43,-48.51,-55.12
2023/04/05 00:06:49+0000,-29.93,-42.36,-37.65,-45.27,-49.41,-55.22
2023/04/05 00:07:42+0000,-30.58,-42.20,-37.88,-45.00,-47.89,-51.38
2023/04/05 00:08:34+0000,-30.37,-41.76,-37.42,-45.43,-48.38,-53.09
2023/04/05 00:09:26+0000,-30.42,-42.28,-37.15,-43.33,-49.32,-54.24
2023/04/05 00:10:18+0000,-29.78,-42.34,-37.53,-46.42,-48.18,-54.99
2023/04/05 00:11:17+0000,-29.80,-42.37,-37.35,-45.49,-49.33,-54.29
2023/04/05 00:12:09+0000,-29.97,-42.09,-37.51,-45.55,-49.33,-52.80
2023/04/05 00:13:01+0000,-29.99,-41.56,-37.35,-47.39,-48.40,-55.25
2023/04/05 00:13:53+0000,-30.13,-42.50,-37.40,-46.53,-49.01,-54.41
2023/04/05 00:14:45+0000,-29.60,-43.31,-37.04,-46.37,-48.85,-51.61
2023/04/05 00:15:37+0000,-29.68,-41.63,-37.32,-45.39,-45.72,-52.08
2023/04/05 00:16:29+0000,-29.78,-44.00,-37.51,-43.26,-47.58,-52.67
2023/04/05 00:17:21+0000,-30.21,-43.78,-37.26,-44.35,-47.57,-52.36
2023/04/05 00:18:13+0000,-29.76,-43.38,-37.20,-42.51,-49.38,-50.89
2023/04/05 00:19:05+0000,-29.96,-44.07,-37.48,-45.78,-48.88,-50.31
2023/04/05 00:19:57+0000,-30.30,-43.36,-37.82,-43.60,-48.99,-52.96
2023/04/05 00:20:49+0000,-29.71,-43.10,-37.14,-45.94,-48.90,-53.15
2023/04/05 00:21:48+0000,-29.73,-43.89,-38.14,-46.07,-49.09,-53.89
2023/04/05 00:22:40+0000,-29.38,-43.14,-37.66,-44.37,-50.96,-52.06
2023/04/05 00:23:32+0000,-29.46,-42.32,-36.76,-43.96,-49.84,-53.38
2023/04/05 00:24:24+0000,-29.75,-43.05,-37.25,-44.14,-50.27,-52.79
2023/04/05 00:25:16+0000,-29.49,-42.42,-37.49,-43.46,-48.79,-52.79
2023/04/05 00:26:08+0000,-30.46,-42.69,-37.24,-44.41,-48.95,-51.07
2023/04/05 00:27:00+0000,-29.47,-43.12,-36.97,-44.45,-48.44,-53.59
2023/04/05 00:27:52+0000,-29.90,-43.46,-37.20,-43.86,-47.13,-53.26
2023/04/05 00:28:45+0000,-30.00,-44.72,-37.12,-43.29,-48.36,-51.62
2023/04/05 00:29:37+0000,-30.62,-44.04,-36.60,-43.09,-47.75,-51.94
2023/04/05 00:30:29+0000,-29.74,-43.76,-36.92,-43.57,-47.67,-51.25
2023/04/05 00:31:28+0000,-29.54,-42.92,-36.78,-43.05,-47.77,-52.61
2023/04/05 00:32:20+0000,-29.56,-43.42,-37.49,-44.95,-47.73,-48.72
2023/04/05 00:33:12+0000,-30.45,-43.52,-37.18,-44.39,-49.19,-51.74
2023/04/05 00:34:04+0000,-30.96,-43.11,-37.14,-45.11,-49.03,-52.27
2023/04/05 00:34:56+0000,-30.37,-43.30,-37.55,-43.83,-49.46,-53.27
2023/04/05 00:35:48+0000,-30.94,-43.73,-37.51,-44.02,-46.55,-53.48
2023/04/05 00:36:40+0000,-30.75,-43.00,-37.42,-44.15,-49.41,-51.56
2023/04/05 00:37:32+0000,-30.70,-43.55,-37.04,-43.35,-48.49,-53.24
2023/04/05 00:38:24+0000,-30.69,-43.62,-37.56,-43.62,-48.03,-52.49
2023/04/05 00:39:16+0000,-31.00,-43.10,-37.23,-45.46,-49.02,-53.42
2023/04/05 00:40:08+0000,-30.60,-43.54,-37.36,-45.19,-49.68,-52.09
2023/04/05 00:41:08+0000,-31.12,-43.00,-37.38,-44.48,-48.38,-52.12
2023/04/05 00:42:00+0000,-30.91,-43.19,-37.09,-42.36,-49.70,-52.89
2023/04/05 00:42:52+0000,-30.77,-43.77,-37.29,-44.52,-49.52,-53.72
2023/04/05 00:43:44+0000,-31.31,-42.37,-38.22,-44.64,-49.32,-51.76
2023/04/05 00:44:36+0000,-31.04,-43.30,-37.31,-45.41,-49.30,-51.31
2023/04/05 00:45:28+0000,-30.56,-42.81,-37.69,-43.87,-49.06,-52.77
2023/04/05 00:46:20+0000,-30.56,-42.95,-37.42,-43.50,-47.68,-52.81
2023/04/05 00:47:12+0000,-31.17,-44.07,-36.64,-41.30,-49.14,-50.37
2023/04/05 00:48:04+0000,-30.72,-43.24,-37.12,-43.03,-49.21,-52.77
2023/04/05 00:48:56+0000,-30.53,-44.20,-37.55,-42.11,-48.91,-53.27
2023/04/05 00:49:48+0000,-31.06,-43.53,-37.05,-43.30,-48.88,-53.11
2023/04/05 00:50:40+0000,-31.15,-44.61,-37.83,-43.64,-49.39,-51.91
2023/04/05 00:51:39+0000,-31.37,-43.31,-37.29,-43.63,-47.91,-51.15
2023/04/05 00:52:31+0000,-30.39,-41.98,-37.16,-42.75,-47.62,-54.04
2023/04/05 00:53:23+0000,-30.88,-43.03,-37.53,-42.12,-47.96,-52.90
2023/04/05 00:54:15+0000,-30.72,-41.77,-37.39,-42.55,-47.56,-51.07
2023/04/05 00:55:07+0000,-31.18,-42.52,-37.05,-42.91,-47.83,-51.84
2023/04/05 00:55:59+0000,-31.59,-41.74,-37.87,-41.91,-47.02,-52.83
2023/04/05 00:56:51+0000,-31.18,-42.27,-37.59,-42.63,-47.54,-53.32
2023/04/05 00:57:44+0000,-31.01,-42.44,-38.07,-42.54,-47.30,-51.55
2023/04/05 00:58:36+0000,-31.19,-43.06,-37.88,-43.77,-48.16,-51.72
2023/04/05 00:59:28+0000,-29.78,-43.05,-38.13,-42.47,-48.32,-52.75
2023/04/05 01:00:20+0000,-31.14,-43.17,-38.19,-43.65,-46.81,-53.27
2023/04/05 01:01:19+0000,-31.70,-42.88,-37.58,-43.94,-48.50,-53.47
2023/04/05 01:02:11+0000,-31.39,-43.02,-38.29,-43.24,-48.19,-52.33
2023/04/05 01:03:03+0000,-31.32,-43.44,-37.67,-41.86,-48.74,-52.04
2023/04/05 01:03:55+0000,-31.11,-43.57,-37.78,-42.81,-48.93,-52.23
2023/04/05 01:04:47+0000,-31.39,-42.92,-37.97,-43.65,-47.95,-53.09
2023/04/05 01:05:39+0000,-31.45,-43.74,-38.69,-43.10,-48.43,-51.89
2023/04/05 01:06:31+0000,-30.90,-43.40,-37.73,-40.43,-47.59,-52.34
2023/04/05 01:07:23+0000,-31.73,-43.88,-38.39,-41.76,-48.75,-52.95
2023/04/05 01:08:15+0000,-31.12,-43.91,-38.36,-42.59,-48.36,-52.65
2023/04/05 01:09:07+0000,-30.70,-43.96,-37.90,-42.73,-48.34,-52.19
2023/04/05 01:09:59+0000,-31.11,-42.98,-38.09,-43.05,-48.93,-52.68
2023/04/05 01:10:52+0000,-30.78,-44.53,-38.05,-42.06,-48.83,-53.36
2023/04/05 01:11:50+0000,-29.77,-44.31,-37.77,-42.83,-48.17,-52.54
2023/04/05 01:12:42+0000,-30.55,-43.53,-38.67,-43.22,-48.77,-51.40
2023/04/05 01:13:34+0000,-30.90,-43.34,-38.00,-43.85,-48.31,-52.73
2023/04/05 01:14:26+0000,-31.66,-43.01,-37.79,-41.93,-48.77,-52.47
2023/04/05 01:15:18+0000,-31.28,-41.88,-37.55,-43.91,-47.04,-53.02
2023/04/05 01:16:10+0000,-30.44,-40.93,-38.08,-42.86,-49.11,-51.78
2023/04/05 01:17:02+0000,-30.18,-42.73,-37.79,-42.34,-48.54,-53.48
2023/04/05 01:17:54+0000,-30.09,-43.55,-37.48,-42.60,-48.79,-53.64
2023/04/05 01:18:46+0000,-30.75,-42.83,-37.78,-42.57,-48.82,-53.84
2023/04/05 01:19:38+0000,-29.45,-43.11,-37.99,-42.58,-46.75,-51.64
2023/04/05 01:20:31+0000,-29.31,-43.27,-37.42,-42.21,-46.77,-53.40
2023/04/05 01:21:30+0000,-29.01,-43.61,-37.59,-42.71,-48.09,-53.34
2023/04/05 01:22:22+0000,-29.87,-43.96,-37.73,-42.47,-48.33,-53.19
2023/04/05 01:23:14+0000,-29.72,-41.57,-37.91,-42.79,-48.73,-51.93
2023/04/05 01:24:06+0000,-29.13,-43.67,-37.57,-43.02,-48.71,-52.10
2023/04/05 01:24:58+0000,-29.94,-43.32,-38.59,-43.33,-49.80,-53.59
2023/04/05 01:25:50+0000,-29.60,-42.12,-38.02,-43.67,-48.89,-53.69
2023/04/05 01:26:42+0000,-29.15,-43.15,-37.96,-43.28,-47.78,-52.60
2023/04/05 01:27:34+0000,-29.54,-43.03,-37.73,-43.85,-48.71,-52.62
2023/04/05 01:28:26+0000,-29.34,-43.37,-38.31,-42.45,-49.15,-53.29
2023/04/05 01:29:18+0000,-28.90,-43.99,-38.67,-43.34,-49.28,-53.24
2023/04/05 01:30:10+0000,-29.17,-42.23,-37.02,-43.67,-49.12,-52.82
2023/04/05 01:31:10+0000,-29.37,-43.06,-37.82,-41.86,-48.74,-52.88
2023/04/05 01:32:02+0000,-29.22,-42.73,-37.77,-42.26,-49.08,-53.09
2023/04/05 01:32:54+0000,-28.74,-43.65,-37.73,-43.10,-48.88,-53.09
2023/04/05 01:33:46+0000,-29.32,-42.38,-37.74,-42.62,-48.62,-53.32
2023/04/05 01:34:38+0000,-28.50,-43.51,-37.84,-41.12,-48.46,-52.74
2023/04/05 01:35:30+0000,-29.19,-43.11,-38.21,-42.39,-48.85,-53.51
2023/04/05 01:36:22+0000,-30.04,-42.49,-37.88,-42.36,-48.65,-53.24
2023/04/05 01:37:14+0000,-29.24,-43.53,-38.69,-42.82,-48.43,-53.07
2023/04/05 01:38:06+0000,-29.41,-42.23,-38.42,-43.64,-48.12,-53.40
2023/04/05 01:38:58+0000,-28.85,-43.29,-37.74,-41.07,-48.88,-53.61
2023/04/05 01:39:50+0000,-29.55,-42.19,-38.23,-43.91,-49.02,-53.17
2023/04/05 01:40:42+0000,-28.88,-42.54,-37.62,-43.45,-49.10,-53.10
2023/04/05 01:41:40+0000,-28.29,-42.77,-38.34,-43.06,-50.34,-53.66
2023/04/05 01:42:32+0000,-33.61,-46.35,-38.32,-42.41,-49.32,-53.55
2023/04/05 01:43:24+0000,-33.04,-46.55,-37.32,-42.25,-50.56,-53.02
2023/04/05 01:44:16+0000,-33.71,-46.09,-37.60,-42.86,-51.23,-53.34
2023/04/05 01:45:08+0000,-33.47,-46.54,-38.18,-43.77,-50.81,-53.77
2023/04/05 01:46:00+0000,-33.31,-45.95,-38.76,-41.81,-50.04,-53.64
2023/04/05 01:46:52+0000,-33.24,-45.94,-36.97,-42.08,-50.67,-53.62
2023/04/05 01:47:44+0000,-32.78,-45.78,-38.68,-43.85,-50.53,-53.57
2023/04/05 01:48:36+0000,-32.87,-44.51,-37.08,-44.37,-50.01,-52.91
2023/04/05 01:49:28+0000,-33.34,-45.15,-37.54,-40.60,-50.61,-53.00
2023/04/05 01:50:20+0000,-33.82,-43.88,-36.91,-44.98,-50.25,-52.72
2023/04/05 01:51:18+0000,-32.69,-44.49,-37.69,-43.49,-50.22,-53.61
2023/04/05 01:52:10+0000,-33.14,-44.45,-37.39,-44.20,-49.78,-53.86
2023/04/05 01:53:02+0000,-33.80,-42.96,-37.24,-42.92,-50.49,-53.37
2023/04/05 01:53:54+0000,-33.11,-45.53,-37.74,-41.68,-48.99,-53.21
2023/04/05 01:54:46+0000,-34.07,-45.70,-36.98,-43.52,-49.07,-53.24
2023/04/05 01:55:38+0000,-34.14,-44.80,-37.69,-42.66,-49.93,-53.51
2023/04/05 01:56:30+0000,-33.75,-45.58,-38.11,-42.87,-50.12,-53.94
2023/04/05 01:57:23+0000,-33.41,-45.46,-37.40,-42.88,-49.44,-53.43
2023/04/05 01:58:15+0000,-33.08,-44.09,-37.55,-43.78,-49.52,-53.33
2023/04/05 01:59:07+0000,-33.68,-46.42,-37.76,-45.41,-49.72,-53.55
2023/04/05 01:59:59+0000,-33.39,-44.18,-38.24,-42.28,-50.20,-53.53
2023/04/05 02:00:51+0000,-33.70,-44.38,-36.68,-45.94,-49.22,-53.56
2023/04/05 02:01:49+0000,-33.52,-44.90,-36.65,-43.59,-49.51,-53.82
2023/04/05 02:02:41+0000,-34.06,-46.31,-38.36,-44.46,-48.97,-53.92
2023/04/05 02:03:33+0000,-34.30,-46.35,-37.93,-44.01,-50.12,-52.92
2023/04/05 02:04:25+0000,-32.93,-46.31,-37.02,-42.31,-50.14,-53.78
2023/04/05 02:05:17+0000,-32.76,-42.82,-37.03,-44.19,-49.15,-53.36
2023/04/05 02:06:09+0000,-32.78,-44.49,-37.87,-43.22,-50.91,-53.09
2023/04/05 02:07:01+0000,-33.55,-44.70,-38.00,-43.04,-50.64,-53.44
2023/04/05 02:07:53+0000,-33.07,-43.78,-35.71,-42.66,-50.31,-53.73
2023/04/05 02:08:45+0000,-33.47,-44.39,-36.01,-42.01,-50.45,-53.59
2023/04/05 02:09:38+0000,-33.06,-44.37,-37.61,-42.45,-49.58,-53.92
2023/04/05 02:10:30+0000,-33.19,-43.57,-37.51,-43.44,-49.94,-53.33
2023/04/05 02:11:28+0000,-33.71,-45.47,-38.02,-42.59,-50.19,-53.35
2023/04/05 02:12:20+0000,-33.43,-44.46,-36.54,-42.50,-49.06,-53.67
2023/04/05 02:13:12+0000,-33.44,-44.88,-38.00,-43.21,-48.79,-53.34
2023/04/05 02:14:04+0000,-33.73,-46.19,-37.69,-43.65,-50.13,-52.99
2023/04/05 02:14:56+0000,-32.92,-46.25,-36.89,-41.92,-50.22,-53.62
2023/04/05 02:15:48+0000,-33.40,-43.08,-38.15,-44.28,-48.80,-53.56
2023/04/05 02:16:40+0000,-33.38,-43.44,-36.90,-42.46,-50.29,-52.92
2023/04/05 02:17:32+0000,-33.45,-42.73,-38.11,-44.27,-50.54,-53.97
2023/04/05 02:18:24+0000,-33.32,-43.89,-37.43,-43.26,-50.27,-52.85
2023/04/05 02:19:16+0000,-32.87,-44.19,-36.45,-42.83,-49.08,-53.54
2023/04/05 02:20:08+0000,-33.13,-43.46,-36.89,-42.79,-50.04,-52.12
2023/04/05 02:21:16+0000,-33.56,-42.49,-37.14,-43.34,-48.70,-52.78
2023/04/05 02:22:08+0000,-33.04,-45.72,-38.14,-42.91,-49.70,-52.14
2023/04/05 02:23:00+0000,-32.95,-46.01,-38.07,-42.40,-50.16,-52.42
2023/04/05 02:23:52+0000,-33.09,-44.91,-37.34,-42.58,-48.00,-52.36
2023/04/05 02:24:44+0000,-33.96,-44.83,-37.67,-43.04,-49.70,-52.54
2023/04/05 02:25:36+0000,-33.79,-44.44,-37.52,-42.03,-49.53,-51.69
2023/04/05 02:26:28+0000,-33.93,-41.24,-37.54,-42.92,-49.71,-52.03
2023/04/05 02:27:20+0000,-32.90,-43.68,-37.98,-43.73,-48.77,-52.27
2023/04/05 02:28:12+0000,-33.77,-42.28,-38.45,-43.19,-49.49,-52.16
2023/04/05 02:29:04+0000,-33.24,-44.70,-37.89,-44.95,-49.44,-52.01
2023/04/05 02:29:57+0000,-32.79,-45.45,-38.38,-44.13,-49.24,-51.96
2023/04/05 02:30:49+0000,-32.60,-42.92,-38.16,-44.00,-49.27,-52.23
2023/04/05 02:31:49+0000,-32.96,-42.14,-37.77,-44.25,-49.30,-52.29
2023/04/05 02:32:41+0000,-33.50,-43.44,-36.95,-43.15,-50.12,-51.85
2023/04/05 02:33:33+0000,-32.77,-43.59,-37.31,-44.40,-49.79,-52.29
2023/04/05 02:34:25+0000,-33.71,-44.75,-37.92,-41.51,-50.16,-52.77
2023/04/05 02:35:18+0000,-33.18,-43.81,-37.92,-43.04,-49.03,-52.68
2023/04/05 02:36:10+0000,-33.07,-43.58,-38.34,-44.01,-49.61,-52.35
2023/04/05 02:37:02+0000,-33.78,-44.25,-37.94,-42.58,-50.11,-52.91
2023/04/05 02:37:54+0000,-33.39,-42.65,-36.76,-42.78,-50.14,-52.50
2023/04/05 02:38:46+0000,-32.81,-44.26,-37.04,-43.70,-49.62,-52.46
2023/04/05 02:39:38+0000,-32.78,-45.00,-37.66,-42.49,-49.50,-52.91
2023/04/05 02:40:30+0000,-32.26,-44.12,-37.44,-42.53,-49.61,-52.37
2023/04/05 02:41:28+0000,-32.42,-44.86,-38.43,-43.61,-49.71,-52.13
2023/04/05 02:42:20+0000,-33.13,-43.74,-37.98,-44.48,-49.64,-52.20
2023/04/05 02:43:12+0000,-33.03,-42.84,-38.05,-43.53,-50.10,-52.32
2023/04/05 02:44:04+0000,-32.68,-44.48,-37.63,-43.55,-49.87,-51.80
2023/04/05 02:44:56+0000,-32.85,-43.59,-38.04,-42.00,-50.20,-52.50
2023/04/05 02:45:48+0000,-32.59,-43.07,-37.79,-42.06,-49.30,-52.55
2023/04/05 02:46:40+0000,-32.60,-42.90,-37.55,-41.35,-50.49,-52.49
2023/04/05 02:47:32+0000,-33.10,-44.10,-37.80,-42.33,-49.69,-52.65
2023/04/05 02:48:24+0000,-32.33,-43.56,-38.12,-41.84,-49.96,-52.69
2023/04/05 02:49:16+0000,-32.45,-43.32,-35.37,-42.85,-49.82,-52.44
2023/04/05 02:50:08+0000,-32.91,-45.07,-37.92,-41.57,-50.02,-52.55
2023/04/05 02:51:08+0000,-32.90,-44.09,-37.39,-42.72,-49.12,-52.38
2023/04/05 02:52:00+0000,-33.27,-42.52,-37.87,-39.35,-50.05,-52.35
2023/04/05 02:52:52+0000,-32.74,-42.57,-36.87,-41.59,-49.94,-52.12
2023/04/05 02:53:44+0000,-33.23,-41.97,-38.39,-41.97,-48.79,-52.90
2023/04/05 02:54:36+0000,-32.98,-42.57,-37.10,-42.39,-49.74,-52.36
2023/04/05 02:55:28+0000,-32.83,-43.07,-37.82,-39.94,-49.79,-45.56
2023/04/05 02:56:20+0000,-33.44,-42.90,-35.99,-43.03,-50.16,-52.96
2023/04/05 02:57:12+0000,-33.70,-41.19,-36.65,-41.20,-49.77,-52.63
2023/04/05 02:58:04+0000,-33.41,-43.77,-38.09,-41.24,-49.18,-53.24
2023/04/05 02:58:56+0000,-32.86,-43.51,-36.78,-41.52,-49.83,-53.08
2023/04/05 02:59:48+0000,-32.27,-45.45,-36.11,-43.03,-50.31,-52.77
2023/04/05 03:00:40+0000,-32.85,-44.96,-37.37,-43.85,-50.02,-52.55
2023/04/05 03:01:39+0000,-32.72,-42.97,-37.88,-42.76,-49.97,-52.30
2023/04/05 03:02:31+0000,-32.53,-43.82,-37.73,-43.03,-49.70,-52.19
2023/04/05 03:03:23+0000,-32.97,-42.84,-35.99,-41.52,-49.66,-52.51
2023/04/05 03:04:15+0000,-32.67,-45.24,-36.05,-42.90,-49.63,-52.19
2023/04/05 03:05:07+0000,-33.12,-42.59,-37.54,-42.70,-50.47,-53.18
2023/04/05 03:05:59+0000,-32.74,-44.14,-37.86,-43.25,-50.32,-52.20
2023/04/05 03:06:51+0000,-32.49,-46.69,-36.87,-42.89,-50.60,-52.35
2023/04/05 03:07:43+0000,-32.83,-43.49,-36.94,-42.61,-49.29,-51.64
2023/04/05 03:08:35+0000,-32.56,-46.42,-37.07,-43.52,-49.78,-52.40
2023/04/05 03:09:27+0000,-32.74,-44.00,-38.07,-40.96,-49.80,-52.31
2023/04/05 03:10:19+0000,-32.95,-46.74,-37.28,-42.88,-50.02,-52.84
2023/04/05 03:11:17+0000,-32.99,-46.03,-36.89,-42.75,-50.14,-52.84
2023/04/05 03:12:10+0000,-33.44,-44.50,-37.18,-42.99,-50.09,-52.47
2023/04/05 03:13:02+0000,-32.90,-44.45,-37.37,-40.22,-49.53,-52.41
2023/04/05 03:13:54+0000,-33.40,-43.31,-37.40,-42.76,-50.06,-52.27
2023/04/05 03:14:46+0000,-33.33,-44.25,-36.94,-43.53,-50.50,-52.07
2023/04/05 03:15:38+0000,-32.29,-44.07,-37.90,-43.29,-50.15,-52.02
2023/04/05 03:16:30+0000,-32.35,-43.30,-36.39,-41.74,-50.02,-52.52
2023/04/05 03:17:22+0000,-33.03,-47.07,-37.30,-41.54,-49.57,-52.34
2023/04/05 03:18:14+0000,-33.53,-45.41,-37.99,-42.93,-49.87,-52.34
2023/04/05 03:19:06+0000,-32.69,-45.21,-37.59,-42.83,-49.41,-52.20
2023/04/05 03:19:58+0000,-32.16,-42.47,-38.42,-42.09,-50.13,-52.24
2023/04/05 03:20:50+0000,-33.00,-46.33,-36.81,-41.30,-49.90,-52.98
2023/04/05 03:21:48+0000,-33.35,-44.74,-37.66,-43.19,-49.75,-52.85
2023/04/05 03:22:40+0000,-32.98,-44.06,-37.36,-41.55,-49.42,-52.53
2023/04/05 03:23:33+0000,-32.73,-44.64,-37.33,-41.41,-50.40,-52.85
2023/04/05 03:24:25+0000,-32.43,-44.28,-37.72,-40.79,-49.96,-52.12
2023/04/05 03:25:17+0000,-33.15,-44.22,-37.51,-41.99,-49.69,-52.34
2023/04/05 03:26:09+0000,-33.39,-45.41,-37.30,-41.95,-49.66,-52.57
2023/04/05 03:27:01+0000,-33.45,-43.61,-37.50,-41.96,-49.25,-52.85
2023/04/05 03:27:53+0000,-32.74,-44.36,-37.38,-42.97,-49.85,-52.36
2023/04/05 03:28:45+0000,-32.76,-43.96,-37.53,-43.48,-49.78,-52.68
2023/04/05 03:29:37+0000,-32.59,-46.25,-36.32,-42.29,-49.65,-52.84
2023/04/05 03:30:29+0000,-32.58,-41.92,-37.97,-41.76,-49.47,-52.34
2023/04/05 03:31:27+0000,-31.11,-42.11,-37.96,-41.64,-49.69,-52.24
2023/04/05 03:32:19+0000,-32.42,-44.88,-36.81,-43.03,-49.58,-52.68
2023/04/05 03:33:11+0000,-32.56,-45.33,-36.86,-41.37,-49.51,-52.49
2023/04/05 03:34:03+0000,-32.28,-42.44,-37.10,-42.99,-49.10,-52.38
2023/04/05 03:34:55+0000,-31.55,-43.05,-36.99,-39.37,-49.32,-52.31
2023/04/05 03:35:47+0000,-32.46,-43.66,-36.78,-42.25,-49.82,-52.30
2023/04/05 03:36:39+0000,-31.83,-43.15,-36.69,-41.72,-47.66,-50.66
2023/04/05 03:37:31+0000,-33.88,-43.45,-37.59,-39.96,-47.11,-51.41
2023/04/05 03:38:23+0000,-32.85,-43.77,-37.25,-39.44,-48.23,-52.03
2023/04/05 03:39:15+0000,-33.50,-42.42,-37.31,-39.56,-48.72,-51.01
2023/04/05 03:40:07+0000,-32.46,-44.20,-37.26,-39.09,-48.23,-50.44
2023/04/05 03:41:06+0000,-32.87,-46.90,-37.27,-40.09,-48.28,-51.20
2023/04/05 03:41:58+0000,-32.56,-43.46,-37.95,-41.89,-48.92,-51.07
2023/04/05 03:42:50+0000,-32.31,-41.36,-36.62,-43.67,-48.56,-51.36
2023/04/05 03:43:43+0000,-33.39,-43.83,-34.59,-43.79,-48.36,-51.38
2023/04/05 03:44:35+0000,-32.19,-43.57,-35.45,-43.76,-48.47,-51.77
2023/04/05 03:45:27+0000,-33.21,-43.18,-37.00,-43.10,-48.47,-51.04
2023/04/05 03:46:19+0000,-32.63,-44.38,-37.19,-43.01,-49.18,-51.89
2023/04/05 03:47:11+0000,-32.46,-42.00,-37.30,-43.93,-48.70,-52.20
2023/04/05 03:48:03+0000,-32.38,-44.89,-37.70,-42.15,-48.82,-51.56
2023/04/05 03:48:55+0000,-31.99,-45.38,-37.51,-43.37,-48.88,-51.59
2023/04/05 03:49:47+0000,-32.57,-43.50,-37.22,-43.27,-49.06,-52.11
2023/04/05 03:50:39+0000,-32.74,-45.26,-36.98,-43.23,-49.24,-51.93
2023/04/05 03:51:37+0000,-32.92,-45.68,-37.39,-43.17,-48.67,-52.23
2023/04/05 03:52:29+0000,-32.36,-39.03,-35.00,-42.65,-48.23,-51.63
2023/04/05 03:53:21+0000,-32.79,-35.68,-36.41,-43.85,-48.87,-51.51
2023/04/05 03:54:13+0000,-32.05,-37.10,-37.85,-43.19,-49.19,-52.17
2023/04/05 03:55:05+0000,-31.22,-37.63,-37.16,-44.06,-48.48,-52.62
2023/04/05 03:55:57+0000,-31.32,-37.79,-36.59,-43.34,-48.67,-51.55
2023/04/05 03:56:49+0000,-30.63,-39.22,-37.29,-44.06,-48.63,-51.53
2023/04/05 03:57:41+0000,-30.58,-38.93,-36.68,-43.03,-48.87,-51.52
2023/04/05 03:58:33+0000,-30.83,-40.19,-37.33,-43.48,-48.82,-52.21
2023/04/05 03:59:25+0000,-30.51,-38.25,-36.61,-43.55,-48.90,-52.24
2023/04/05 04:00:18+0000,-29.94,-40.86,-36.88,-43.20,-48.63,-52.10
2023/04/05 04:01:16+0000,-30.26,-41.07,-37.73,-44.13,-48.34,-51.72
2023/04/05 04:02:08+0000,-30.28,-41.33,-37.28,-43.59,-48.97,-52.99
2023/04/05 04:03:00+0000,-30.16,-37.12,-37.46,-43.99,-49.47,-52.14
2023/04/05 04:03:52+0000,-30.09,-41.69,-36.54,-44.62,-49.33,-52.39
2023/04/05 04:04:44+0000,-30.49,-40.20,-36.74,-43.42,-49.05,-52.01
2023/04/05 04:05:36+0000,-30.54,-42.37,-37.42,-43.49,-48.98,-51.98
2023/04/05 04:06:28+0000,-30.08,-41.25,-37.72,-43.25,-49.26,-51.75
2023/04/05 04:07:21+0000,-30.34,-42.67,-37.05,-43.27,-48.81,-52.04
2023/04/05 04:08:13+0000,-31.04,-41.20,-37.74,-43.51,-49.28,-51.77
2023/04/05 04:09:05+0000,-31.05,-40.66,-36.50,-43.33,-48.64,-50.70
2023/04/05 04:09:57+0000,-30.46,-41.07,-37.75,-42.70,-48.12,-50.67
2023/04/05 04:10:49+0000,-30.57,-41.07,-36.40,-43.98,-48.48,-50.98
2023/04/05 04:11:47+0000,-30.81,-42.25,-37.12,-42.82,-48.18,-51.95
2023/04/05 04:12:39+0000,-29.88,-42.58,-36.44,-42.85,-48.67,-51.47
2023/04/05 04:13:31+0000,-29.85,-42.44,-35.49,-42.91,-49.10,-51.52
2023/04/05 04:14:23+0000,-30.54,-41.08,-36.35,-43.06,-49.41,-51.42
2023/04/05 04:15:15+0000,-30.73,-42.40,-36.83,-43.23,-49.63,-52.43
2023/04/05 04:16:07+0000,-29.91,-40.49,-36.73,-43.39,-49.59,-51.72
2023/04/05 04:16:59+0000,-30.80,-41.38,-36.24,-42.66,-49.56,-51.96
2023/04/05 04:17:51+0000,-30.57,-42.48,-37.08,-42.75,-49.36,-51.64
2023/04/05 04:18:44+0000,-29.91,-41.16,-37.70,-42.55,-49.38,-52.03
2023/04/05 04:19:36+0000,-30.44,-42.77,-37.24,-42.84,-49.86,-52.38
2023/04/05 04:20:28+0000,-29.87,-40.90,-38.20,-42.74,-50.32,-51.87
2023/04/05 04:21:27+0000,-30.24,-40.55,-38.42,-43.89,-50.03,-51.52
2023/04/05 04:22:19+0000,-29.92,-41.17,-36.87,-44.73,-50.28,-51.53
2023/04/05 04:23:11+0000,-30.07,-40.12,-37.54,-41.89,-50.42,-50.52
2023/04/05 04:24:03+0000,-29.87,-40.64,-36.77,-42.09,-49.96,-51.47
2023/04/05 04:24:55+0000,-30.26,-40.61,-35.55,-44.89,-49.71,-51.50
2023/04/05 04:25:47+0000,-30.53,-40.87,-36.27,-43.93,-50.32,-51.19
2023/04/05 04:26:39+0000,-29.98,-40.68,-37.10,-44.05,-50.12,-51.46
2023/04/05 04:27:31+0000,-30.30,-40.78,-36.15,-43.75,-49.91,-52.12
2023/04/05 04:28:23+0000,-29.86,-41.14,-36.31,-42.79,-49.92,-52.32
2023/04/05 04:29:15+0000,-30.43,-41.35,-37.06,-43.36,-50.51,-52.36
2023/04/05 04:30:07+0000,-29.45,-42.51,-37.10,-44.10,-50.44,-52.70
2023/04/05 04:31:07+0000,-30.38,-42.21,-36.45,-43.83,-50.20,-52.24
2023/04/05 04:31:59+0000,-30.36,-38.83,-38.10,-42.60,-50.19,-52.56
2023/04/05 04:32:51+0000,-30.73,-41.33,-37.88,-42.59,-50.00,-52.28
2023/04/05 04:33:43+0000,-31.00,-39.26,-37.97,-44.11,-50.98,-52.25
2023/04/05 04:34:35+0000,-30.07,-40.43,-37.45,-45.05,-50.31,-51.87
2023/04/05 04:35:27+0000,-30.11,-39.52,-37.14,-43.23,-49.23,-52.23
2023/04/05 04:36:19+0000,-30.68,-40.56,-37.20,-44.61,-50.12,-52.32
2023/04/05 04:37:11+0000,-31.22,-40.16,-36.82,-44.50,-50.11,-52.09
2023/04/05 04:38:03+0000,-30.79,-39.39,-35.96,-41.89,-50.87,-51.86
2023/04/05 04:38:55+0000,-30.17,-40.50,-36.22,-42.65,-50.43,-52.83
2023/04/05 04:39:47+0000,-30.40,-39.70,-35.92,-44.36,-50.65,-52.72
2023/04/05 04:40:39+0000,-30.70,-40.48,-36.80,-44.52,-50.46,-52.67
2023/04/05 04:41:38+0000,-29.77,-40.26,-36.67,-44.29,-49.97,-52.60
2023/04/05 04:42:30+0000,-30.08,-38.80,-36.12,-41.78,-50.61,-52.25
2023/04/05 04:43:22+0000,-29.82,-40.98,-36.56,-43.38,-50.82,-52.07
2023/04/05 04:44:14+0000,-30.38,-40.73,-37.41,-41.69,-50.68,-52.34
2023/04/05 04:45:06+0000,-29.03,-40.79,-36.39,-44.88,-50.11,-52.20
2023/04/05 04:45:58+0000,-29.77,-39.29,-38.14,-39.02,-50.03,-51.87
2023/04/05 04:46:50+0000,-30.46,-40.28,-37.26,-40.99,-50.29,-51.57
2023/04/05 04:47:42+0000,-30.33,-40.54,-38.04,-41.01,-49.89,-52.15